Weather History for Flagstaff, AZ

Change the Weather History Date:

Sunday, June 23, 2013

  Actual Average Record
Temperature  
Mean Temperature 60 °F 62 °F  
Max Temperature 79 °F 80 °F 93 °F (1974)
Min Temperature 41 °F 44 °F 31 °F (1948)
Degree Days  
Heating Degree Days 5 4  
Month to date heating degree days 51 151  
Since 1 July heating degree days 6712 6924  
Cooling Degree Days 0 1  
Month to date cooling degree days 16 6  
Year to date cooling degree days 16 6  
Growing Degree Days 10 (Base 50)    
Moisture  
Dew Point 17 °F    
Average Humidity 23    
Maximum Humidity 39    
Minimum Humidity 7    
Precipitation  
Precipitation 0.00 in 0.01 in 0.17 in (2000)
Month to date precipitation 0.01 0.23  
Year to date precipitation 5.24 8.34  
Snow  
Snow 0.00 in 0.00 in 0.00 in (2002)
Month to date snowfall 0.0 0.1  
Since 1 July snowfall 69.7 101.8  
Snow Depth 0.00 in    
Sea Level Pressure  
Sea Level Pressure 29.84 in    
Wind  
Wind Speed 10 mph (SW)    
Max Wind Speed 30 mph    
Max Gust Speed 37 mph    
Visibility 10 miles    
Events      
T = Trace of Precipitation, MM = Missing Value Source: NWS Daily Summary

Daily Weather History Graph

Daily Weather History Graph

Search for Another Location

Airport:

Trip Planner

Search our weather history database for the weather conditions in past years. The results will help you decide how hot, cold, wet, or windy it might be!

Date:

Astronomy

Jun. 23, 2013 Rise Set
Actual Time 5:13 AM MST 7:44 PM MST
Civil Twilight 4:43 AM MST 8:14 PM MST
Nautical Twilight 4:06 AM MST 8:51 PM MST
Astronomical Twilight 3:25 AM MST 9:32 PM MST
Moon 8:03 PM MST (6/23) 5:32 AM MST (6/23)
Length of Visible Light 15h 31m
Length of Day
14h 31m
Full, 100% of the Moon is Illuminated
Jun 23
Full
Jun 29
Last Quarter
Jul 8
New
Jul 15
First Quarter
Jul 22
Full

Hourly Weather History & Observations

Time (MST) Temp. Dew Point Humidity Pressure Visibility Wind Dir Wind Speed Gust Speed Precip Events Conditions
12:57 AM 48.0 °F 19.9 °F 33% 29.86 in 10.0 mi Calm Calm - N/A   Clear
1:57 AM 46.9 °F 19.9 °F 34% 29.86 in 10.0 mi Calm Calm - N/A   Clear
2:57 AM 43.0 °F 19.9 °F 40% 29.86 in 10.0 mi Calm Calm - N/A   Clear
3:57 AM 42.1 °F 19.9 °F 41% 29.86 in 10.0 mi Calm Calm - N/A   Clear
4:57 AM 42.1 °F 19.9 °F 41% 29.86 in 10.0 mi Calm Calm - N/A   Clear
5:57 AM 46.0 °F 21.9 °F 39% 29.86 in 10.0 mi Calm Calm - N/A   Clear
6:14 AM 48.2 °F 23.0 °F 37% 30.13 in 10.0 mi Calm Calm - N/A   Partly Cloudy
6:57 AM 61.0 °F 27.0 °F 27% 29.81 in 10.0 mi Calm Calm - N/A   Clear
7:57 AM 66.0 °F 23.0 °F 20% 29.82 in 10.0 mi SSW 10.4 mph - N/A   Clear
8:57 AM 66.9 °F 24.1 °F 20% 29.84 in 10.0 mi SW 13.8 mph 19.6 mph N/A   Clear
9:57 AM 70.0 °F 21.0 °F 16% 29.85 in 10.0 mi SSW 19.6 mph 25.3 mph N/A   Clear
10:57 AM 72.0 °F 19.9 °F 14% 29.86 in 10.0 mi SSW 12.7 mph 29.9 mph N/A   Clear
11:57 AM 75.0 °F 19.0 °F 12% 29.85 in 10.0 mi SSW 21.9 mph 27.6 mph N/A   Clear
12:38 PM 75.2 °F 17.6 °F 11% 30.11 in 10.0 mi SW 17.3 mph 28.8 mph N/A   Clear
12:57 PM 75.9 °F 17.1 °F 11% 29.83 in 10.0 mi SW 17.3 mph 29.9 mph N/A   Clear
1:57 PM 75.9 °F 15.1 °F 10% 29.81 in 10.0 mi SW 10.4 mph 32.2 mph N/A   Clear
2:57 PM 77.0 °F 12.0 °F 8% 29.81 in 10.0 mi SW 23.0 mph 33.4 mph N/A   Clear
3:57 PM 78.1 °F 10.9 °F 8% 29.79 in 10.0 mi SSW 23.0 mph 34.5 mph N/A   Clear
4:57 PM 75.0 °F 10.0 °F 8% 29.79 in 10.0 mi SW 24.2 mph 32.2 mph N/A   Clear
5:57 PM 73.9 °F 10.0 °F 9% 29.78 in 10.0 mi SW 23.0 mph 28.8 mph N/A   Clear
6:57 PM 70.0 °F 12.0 °F 11% 29.74 in 10.0 mi SSW 16.1 mph - N/A   Clear
7:57 PM 68.0 °F 12.0 °F 11% 29.73 in 10.0 mi SW 11.5 mph - N/A   Clear
8:57 PM 64.9 °F 14.0 °F 14% 29.74 in 10.0 mi SW 11.5 mph - N/A   Clear
9:57 PM 60.1 °F 14.0 °F 16% 29.76 in 10.0 mi Calm Calm - N/A   Clear
10:57 PM 53.1 °F 14.0 °F 21% 29.78 in 10.0 mi Calm Calm - N/A   Clear
11:57 PM 48.9 °F 14.0 °F 25% 29.78 in 10.0 mi Calm Calm - N/A   Clear